Location: Passiano
(40.7000°N, 14.6833°E)
Time: 01:40:51
(UTC+00:00)

Daily predictions for brighter satellites

Satellite Brightness Start Highest point End
(mag) Time Altitude Azimuth Time Altitude Azimuth Time Altitude Azimuth
Cosmos 1943 Rocket 4.5 02:25:02 19° ENE 02:25:02 19° ENE 02:27:01 10° NE
CENTAUR R/B 4.1 02:28:55 29° ENE 02:28:55 29° ENE 02:32:25 10° NE
Cosmos 2344 3.8 02:53:31 56° NNE 02:53:31 56° NNE 02:59:22 10° NE
USA 238 DEB 3.6 03:12:40 75° E 03:12:40 75° E 03:19:03 10° NE
USA 238 3.6 03:12:43 75° E 03:12:43 75° E 03:19:09 10° NE
BREEZE-M DEB (TANK) 3.8 03:15:56 49° NE 03:15:56 49° NE 03:24:48 10° ESE
Cosmos 1816 Rocket 4.4 03:17:02 10° S 03:23:13 82° E 03:29:31 10° N
USA 215 4.2 03:18:01 10° E 03:23:54 37° NNE 03:25:42 32° N
Cosmos 2034 Rocket 3.9 03:24:11 83° NE 03:24:23 85° E 03:30:41 10° S
Cosmos 1814 Rocket 4.5 03:32:11 51° SSE 03:32:11 51° SSE 03:35:59 10° SSE
Cosmos 2369 Rocket 3.0 03:31:04 10° S 03:36:24 49° ESE 03:41:47 10° NE
Cosmos 1782 3.9 03:40:16 43° E 03:40:16 43° E 03:43:39 10° SSE
Hubble Space Telescope 3.5 03:43:15 10° S 03:43:15 10° S 03:43:20 10° S
COSMO-SKYMED 1 3.9 03:41:46 10° SE 03:45:45 37° ENE 03:48:36 17° NNE
Cosmos 1634 Rocket 4.5 03:40:30 10° N 03:46:43 60° E 03:52:50 10° SSE
MOS 1-B Rocket 4.2 03:42:21 10° SSE 03:48:48 71° ENE 03:54:14 12° N
Tsikada Rocket 3.8 03:44:36 10° S 03:50:47 78° W 03:57:05 10° N
Cosmos 1867 3.4 03:50:14 71° NW 03:50:50 84° WSW 03:56:16 10° SSE
Cosmos 2208 Rocket 3.9 03:52:17 55° NNW 03:53:32 87° WSW 03:58:54 10° SSE
H-2A R/B 3.2 03:51:04 10° NNE 03:54:44 57° E 03:58:25 10° S
Cosmos 1656 Rocket 4.2 03:55:15 10° S 04:00:29 55° ESE 04:05:48 10° NNE
Cosmos 1943 Rocket 2.7 04:06:38 40° NW 04:06:38 40° NW 04:11:12 10° N
CZ-2C R/B 2.9 04:01:20 10° SSE 04:06:48 70° ENE 04:12:11 10° N
SL-19 R/B 4.1 04:03:25 10° SSE 04:09:02 81° WSW 04:13:21 18° NNW
Cosmos 1486 Rocket 4.0 04:04:28 10° SSW 04:09:46 82° ESE 04:15:05 10° NNE
Cosmos 2082 Rocket 4.2 04:15:38 12° SW 04:15:38 12° SW 04:16:13 10° SW
Cosmos 1241 Rocket 4.3 04:10:32 34° NW 04:13:18 71° WSW 04:19:27 10° SSE
CENTAUR R/B 3.0 04:16:08 35° WNW 04:16:58 36° NW 04:23:25 10° NNE
Cosmos 2297 4.4 04:21:06 33° NW 04:21:06 33° NW 04:26:00 10° N
Iridium 2 3.5 04:21:27 10° S 04:25:14 72° W 04:29:01 10° N
SJ 16-02 4.0 04:23:54 10° SSE 04:27:14 22° E 04:30:35 10° NE
NOSS 3-2 (A) 4.4 04:27:50 25° NW 04:28:18 25° NW 04:33:34 10° NNE
SKYMED 2 3.5 04:29:26 10° S 04:33:43 63° W 04:37:12 15° NNW
NOSS 3-2 (C) 3.9 04:33:35 28° WNW 04:35:27 35° NW 04:41:17 10° NNE
Envisat 3.1 04:31:59 10° N 04:36:55 52° WNW 04:41:49 10° SSW
DELTA 2 R/B (1) 3.9 04:33:01 19° WSW 04:36:59 62° SSE 04:42:28 10° E
Meteor 2-6 Rocket 4.1 04:32:47 10° N 04:38:13 88° E 04:43:37 10° S
Cosmos 2098 Rocket 3.0 04:36:42 10° SSW 04:40:17 50° WNW 04:44:48 10° N
Meteor 2-3 Rocket 4.5 04:36:14 10° SW 04:41:06 29° WNW 04:46:02 10° NNW
Landsat 5 3.6 04:38:51 10° S 04:43:20 66° WSW 04:47:49 10° NNW
ATLAS 3B R/B 4.2 04:38:21 10° S 04:44:10 36° ESE 04:50:12 10° NE
Cosmos 968 Rocket 4.2 04:42:38 21° W 04:44:48 29° WNW 04:49:16 10° N
BREEZE-M DEB (TANK) 4.3 04:31:15 17° WNW 04:45:33 65° SW 04:50:47 10° SE
CZ-4B R/B 4.4 04:45:11 10° N 04:49:24 43° WNW 04:53:37 10° SW
Genesis I 4.0 04:49:24 25° WNW 04:51:01 36° WSW 04:54:44 10° S
Okean 3 Rocket 3.7 04:47:26 10° SSW 04:51:52 56° W 04:56:21 10° N
Cosmos 921 Rocket 3.6 04:50:35 20° NW 04:53:06 37° W 04:57:12 10° SSW
H-2A R/B 3.1 04:49:58 10° SE 04:54:01 46° ENE 04:58:10 10° N
ATLAS 5 CENTAUR R/B 3.0 04:50:44 10° S 04:54:10 35° ESE 04:57:53 10° NE
Meteor 1-10 Rocket 4.2 04:48:38 10° N 04:54:13 87° E 04:59:46 10° S
DNEPR-1 R/B 4.1 04:53:14 13° NNW 04:57:43 88° ENE 05:03:38 10° SSE
Cosmos 1833 4.3 04:52:08 10° NNW 04:57:52 86° ENE 05:03:37 10° SSE
Cosmos 1812 3.5 04:56:57 17° NW 04:59:15 30° W 05:02:38 10° SSW
ADEOS 3.5 04:55:18 10° N 05:00:28 64° WNW 05:05:37 10° SSW
SJ-7 4.4 04:57:39 10° N 05:01:50 68° WNW 05:05:56 10° SSW
Cosmos 1354 Rocket 3.9 04:56:59 10° SSW 05:02:13 71° WNW 05:07:32 10° NNE
Cosmos 1766 Rocket 4.1 05:01:13 10° SW 05:05:09 34° WNW 05:09:07 10° N
Cosmos 1151 Rocket 3.7 05:02:11 10° NNW 05:06:09 34° W 05:10:05 10° SSW
USA 215 3.3 05:00:02 10° SE 05:06:33 78° SW 05:13:03 10° NW
CZ-2C R/B 2.9 05:03:38 10° N 05:08:30 80° WNW 05:13:35 10° SSW
Meteor PRIRODA 3.6 05:10:12 10° N 05:13:45 55° WNW 05:17:18 10° SSW
Meteor 1-31 Rocket 4.0 05:12:14 10° NNW 05:15:08 20° WNW 05:18:03 10° WSW
IRAS Rocket 4.2 05:09:53 10° S 05:15:22 67° WSW 05:20:51 10° NNW
Cosmos 2279 Rocket 4.3 05:11:04 10° NNW 05:16:50 42° W 05:22:35 10° SSW
BREEZE-M DEB (TANK) 3.4 05:05:12 10° WSW 05:18:18 75° NNW 05:21:51 10° NE
Cosmos 1328 Rocket 4.2 05:14:50 10° NNW 05:18:50 35° W 05:22:46 10° SSW
Cosmos 2369 Rocket 3.1 05:16:09 10° WSW 05:20:41 25° NW 05:25:14 10° N
COSMO-SKYMED 1 4.0 05:18:58 10° SW 05:22:01 19° W 05:25:06 10° NW
FengYun 1-2 T 4.2 05:18:19 10° NNE 05:23:50 89° WNW 05:29:19 10° SSW
SMAP 3.2 05:19:36 10° NNE 05:24:17 83° ESE 05:28:56 10° SSW
Nadezhda 4 Rocket 4.0 05:18:14 10° SSW 05:24:19 69° W 05:30:33 10° N
CZ-2D R/B 3.9 05:29:58 10° NNE 05:33:43 61° E 05:37:27 10° S
H-2A R/B 3.0 05:30:48 10° NNE 05:35:35 51° E 05:40:22 10° S
Cosmos 2228 Rocket 3.6 05:32:38 10° N 05:37:07 65° E 05:41:36 10° SSE
CZ-4B R/B 1.6 05:34:32 10° SSE 05:37:51 74° ENE 05:41:09 10° N
CZ-4B R/B 3.3 05:34:51 10° N 05:38:02 30° WNW 05:41:12 10° SW
Cosmos 1092 Rocket 4.1 05:32:19 10° S 05:38:33 90° E 05:44:54 10° N
Cosmos 1408 Rocket 4.3 05:36:46 10° SW 05:40:34 30° WNW 05:44:23 10° NNW
